Weather History for Rifle, CO

Change the Weather History Date:

Thursday, December 13, 2012

  Actual Average Record
Temperature  
Mean Temperature 37 °F 25 °F  
Max Temperature 51 °F 36 °F 60 °F (1934)
Min Temperature 22 °F 15 °F -18 °F (1932)
Degree Days  
Heating Degree Days 28 40  
Month to date heating degree days 429 494  
Since 1 July heating degree days 1687 2020  
Cooling Degree Days 0 0  
Month to date cooling degree days 0 0  
Year to date cooling degree days 809 541  
Moisture  
Dew Point 21 °F    
Average Humidity 55    
Maximum Humidity 81    
Minimum Humidity 29    
Precipitation  
Precipitation 0.00 in 0.02 in 0.40 in (1990)
Month to date precipitation 0.05 0.37  
Year to date precipitation 7.33 13.83  
Sea Level Pressure  
Sea Level Pressure 30.01 in    
Wind  
Wind Speed 2 mph (South)    
Max Wind Speed 8 mph    
Max Gust Speed 9 mph    
Visibility 10 miles    
Events      
T = Trace of Precipitation, MM = Missing Value Source: NWS Daily Summary

Daily Weather History Graph

Daily Weather History Graph

Search for Another Location

Airport:

Trip Planner

Search our weather history database for the weather conditions in past years. The results will help you decide how hot, cold, wet, or windy it might be!

Date:

Astronomy

Dec. 13, 2012 Rise Set
Actual Time 7:23 AM MST 4:47 PM MST
Civil Twilight 6:52 AM MST 5:17 PM MST
Nautical Twilight 6:19 AM MST 5:51 PM MST
Astronomical Twilight 5:46 AM MST 6:24 PM MST
Moon 7:34 AM MST (12/13) 5:33 PM MST (12/13)
Length of Visible Light 10h 24m
Length of Day
9h 24m
New Moon, 0% of the Moon is Illuminated
Dec 13
New Moon
Dec 19
First Quarter
Dec 28
Full
Jan 4
Last Quarter
Jan 11
New

Hourly Weather History & Observations

Time (MST) Temp. Windchill Dew Point Humidity Pressure Visibility Wind Dir Wind Speed Gust Speed Precip Events Conditions
12:53 AM 28.0 °F - 21.0 °F 75% 30.04 in 10.0 mi Calm Calm - N/A   Clear
1:53 AM 25.0 °F 18.1 °F 19.9 °F 81% 30.05 in 10.0 mi ESE 5.8 mph - N/A   Clear
2:53 AM 25.0 °F - 19.9 °F 81% 30.05 in 10.0 mi Calm Calm - N/A   Clear
3:53 AM 25.0 °F - 19.9 °F 81% 30.05 in 10.0 mi Calm Calm - N/A   Clear
4:53 AM 25.0 °F 20.7 °F 19.9 °F 81% 30.06 in 10.0 mi SSW 3.5 mph - N/A   Clear
5:53 AM 25.0 °F - 19.0 °F 78% 30.09 in 10.0 mi Calm Calm - N/A   Clear
6:53 AM 24.1 °F - 19.0 °F 81% 30.11 in 10.0 mi Calm Calm - N/A   Clear
7:53 AM 23.0 °F - 18.0 °F 81% 30.12 in 10.0 mi Calm Calm - N/A   Clear
8:53 AM 28.9 °F - 21.9 °F 75% 30.10 in 10.0 mi Calm Calm - N/A   Clear
9:53 AM 33.1 °F - 21.9 °F 64% 30.09 in 10.0 mi Calm Calm - N/A   Clear
10:53 AM 37.9 °F - 23.0 °F 55% 30.04 in 10.0 mi Calm Calm - N/A   Clear
11:53 AM 43.0 °F - 21.0 °F 42% 29.99 in 10.0 mi Calm Calm - N/A   Clear
12:53 PM 46.9 °F - 19.9 °F 34% 29.94 in 10.0 mi West 3.5 mph - N/A   Clear
1:53 PM 48.9 °F - 19.0 °F 31% 29.92 in 10.0 mi Calm Calm - N/A   Clear
2:53 PM 50.0 °F - 19.0 °F 29% 29.90 in 10.0 mi WSW 6.9 mph - N/A   Clear
4:53 PM 39.9 °F 34.5 °F 24.1 °F 53% 29.93 in 10.0 mi SE 8.1 mph - N/A   Clear
6:53 PM 35.1 °F - 24.1 °F 64% 29.98 in 10.0 mi Calm Calm - N/A   Clear
7:53 PM 33.1 °F 30.0 °F 23.0 °F 66% 29.99 in 10.0 mi East 3.5 mph - N/A   Clear
8:53 PM 32.0 °F - 21.9 °F 66% 29.97 in 10.0 mi Calm Calm - N/A   Clear
9:53 PM 28.9 °F - 19.9 °F 69% 29.96 in 10.0 mi Calm Calm - N/A   Clear
11:53 PM 27.0 °F - 19.0 °F 72% 29.91 in 10.0 mi Calm Calm - N/A   Clear